Vertical_Velocity
3 0 -1 0 2 1 2 1 0 0 2 3 2 2 2 -3 -2 1 3 1 -3 -5 -2 -1 -0 -2 3 1 1 1 1 1 -0 -0 1 1 -1 -2 -0 1 1 1 1
2 3 2 2 1 -1 -0 0 1 1 1 -1 2 4 2 2 1 1 -3 0 1 -2 -1 -1 -2 -1 -1 1 2 0 4 2 1 1 -1 2 0 1 0 -1 -1 1 0
2 3 1 2 3 2 1 1 2 1 -0 2 2 -2 -1 0 -0 0 -1 -0 1 1 -1 -1 -0 -1 -0 -0 -0 2 2 1 3 1 1 -1 2 0 0 -0 1 -1 0
-0 -2 -1 1 1 -1 -1 3 2 2 2 1 3 8 4 0 -2 1 -0 -0 -1 1 2 0 1 0 -2 -2 1 0 1 3 0 2 -1 1 1 2 1 -0 -1 0 -1
1 -2 -1 -0 -1 -1 -3 -1 -2 0 0 -1 0 -1 1 2 3 -1 1 3 4 5 4 1 -0 2 1 1 0 -1 2 -0 1 1 2 2 2 2 1 0 1 1 0
-2 -2 -4 -1 0 -3 -1 -0 -2 -1 -3 0 -2 -1 -3 -2 0 -3 -1 -1 2 2 2 4 0 3 1 3 0 2 -0 3 0 1 1 0 1 1 3 2 1 1 2
0 6 3 3 7 4 4 1 -2 -3 0 -1 1 -1 1 2 2 2 4 1 -3 -0 3 2 2 3 3 2 0 2 4 2 2 3 1 2 1 1 2 3 1 -1 1
2 -1 0 -1 -0 3 5 5 2 4 3 2 3 5 -10 -3 -7 2 -0 -3 3 1 -1 0 0 1 -3 -4 1 -1 2 0 2 1 4 4 3 1 1 3 3 2 -1
3 4 2 0 -1 -4 1 2 2 4 0 2 1 11 -3 -7 1 5 8 2 2 2 2 5 7 4 6 6 3 4 -0 2 -2 1 3 -3 -1 5 3 2 2 3 4
0 0 0 0 -3 -3 -0 1 1 2 4 1 4 5 6 6 -3 -8 0 -2 1 1 7 4 1 4 4 4 7 2 2 1 5 -2 -1 3 -3 -6 5 5 1 3 1
2 3 3 2 2 0 -2 -2 1 2 0 -0 -0 3 6 -1 -1 -6 -13 2 -0 4 5 4 -5 1 4 2 -1 12 -1 -0 3 3 -1 -4 3 3 -0 -3 -1 2 3
-2 -1 2 4 3 4 4 3 2 1 -1 2 -1 5 4 4 3 -3 -3 1 -8 6 1 13 -3 1 -0 -2 12 3 4 -1 -3 10 3 -3 2 8 4 -2 -6 3 5
-2 -3 -3 -2 -1 -1 2 2 3 3 2 1 6 -1 -0 3 7 8 3 2 -5 8 -5 4 4 13 -1 4 -13 15 21 37 3 -1 7 18 7 6 18 9 6 5 6
0 0 -0 -0 -1 -1 -1 -1 1 -0 -1 -0 1 2 -2 4 4 7 5 8 -5 22 9 -2 -7 23 6 14 -3 6 -13 -22 9 7 -1 6 5 -2 2 2 -2 2 2
-0 1 2 2 -0 -0 -0 -0 -0 -3 -3 -1 -2 -0 -2 -1 2 5 2 2 8 6 -9 -13 -7 5 8 18 27 -2 -6 -3 13 -2 2 1 -9 6 5 8 -0 -1 1
-2 -1 1 -0 1 2 -0 1 2 -1 -1 -2 0 1 -1 1 4 4 -1 2 2 4 -3 4 -5 -9 33 10 7 10 1 6 4 -2 -2 -2 -2 8 5 2 -4 -3 2
0 -0 -2 1 -1 -2 -0 -1 -1 1 -1 -1 -3 -1 -1 1 1 -2 -3 -1 -1 4 -3 -18 8 -18 -11 -0 6 4 -8 4 -13 7 -1 1 1 1 3 -0 -1 -2 -1
-1 -1 -0 -0 -3 -0 -1 -1 1 0 -6 -2 -2 -1 -0 -1 -1 0 1 2 3 -1 1 -7 6 -4 -3 -1 -8 7 -13 12 4 -1 2 -3 -0 -0 -2 1 4 -1 -2
-0 -0 0 -2 -2 1 -1 -1 -1 -1 -2 -1 -1 -2 -2 -2 -2 1 -1 -2 -2 0 -0 -1 -3 11 -7 12 -4 -5 -2 -2 -3 -2 2 -2 -6 -3 -1 0 -5 1 -5
1 1 -2 -2 1 -2 -2 -1 0 -4 -3 -1 -2 -1 -1 -3 -3 -3 -0 1 2 1 0 9 -3 -2 5 -2 -6 -3 -1 4 2 2 -2 -2 -1 -1 -1 -2 4 2 1
2 -0 -0 -0 0 -3 -0 -2 -1 -3 -3 -2 -3 -1 -7 -1 -2 -4 -3 -4 -1 -0 -0 -1 1 -2 6 5 -6 1 1 -0 -2 3 6 0 -1 3 -1 -1 -0 0 -2
-0 1 1 -1 -1 -3 -2 0 -1 -2 -3 0 -2 -3 -6 -3 -3 -2 -2 -2 -2 -3 -3 1 2 -0 -5 -7 -1 -3 -4 -2 -0 3 1 -6 3 -4 -0 2 -2 -3 -3
0 1 -3 3 -0 -2 -1 1 -2 -1 -3 -2 -2 -3 -2 -4 -3 -2 -1 -3 -3 -2 -1 -0 2 1 3 4 2 5 6 1 -3 -4 3 7 -3 -3 -5 -7 -3 -2 -0
-1 0 -1 -1 2 -0 -0 -1 -2 -1 -1 -1 -2 -1 -1 -2 -2 -1 -1 -1 -1 -0 1 -0 -1 -1 0 0 -1 -1 -2 -1 0 -1 3 -3 -1 -2 -1 -2 -3 -3 -2
1 -1 -3 -1 -0 -1 -2 -2 -1 -3 -0 -1 -0 0 -2 -2 -1 1 -1 -1 -0 -1 -1 -0 -0 0 1 1 1 1 1 0 0 -1 0 -1 -2 -4 0 -1 -2 -1 -2
-2 -3 -0 -0 0 -0 -2 -5 -4 -3 -1 -0 -1 -2 -0 -0 -0 -1 0 -1 -0 -0 -0 -0 -1 -1 -0 0 1 -0 -1 -1 -1 -2 -1 -1 -0 -1 0 -3 -2 -2 -2
Height
3190 3190 3189 3190 3190 3189 3189 3188 3187 3187 3187 3186 3185 3184 3183 3183 3183 3182 3181 3179 3178 3177 3175 3173 3172 3170 3169 3168 3167 3166 3166 3165 3165 3164 3164 3164 3164 3163 3163 3162 3162 3161 3161
3186 3187 3187 3186 3186 3185 3185 3184 3183 3183 3183 3183 3182 3181 3180 3179 3179 3178 3177 3176 3175 3173 3172 3171 3170 3168 3166 3165 3165 3164 3164 3163 3162 3162 3161 3161 3161 3160 3160 3160 3159 3159 3158
3182 3182 3182 3182 3182 3181 3180 3180 3179 3178 3178 3177 3177 3176 3175 3174 3174 3174 3173 3173 3171 3170 3169 3168 3166 3164 3163 3162 3161 3161 3161 3160 3159 3159 3159 3158 3158 3157 3157 3157 3157 3156 3156
3177 3177 3178 3177 3176 3176 3175 3175 3174 3174 3173 3172 3172 3170 3169 3168 3168 3168 3168 3166 3166 3165 3164 3163 3162 3160 3159 3158 3157 3157 3156 3156 3156 3155 3155 3155 3154 3154 3154 3154 3154 3154 3153
3171 3171 3171 3171 3170 3169 3169 3168 3168 3167 3166 3166 3165 3164 3163 3162 3160 3160 3161 3160 3160 3159 3158 3157 3157 3156 3154 3153 3152 3151 3151 3151 3151 3150 3150 3150 3150 3150 3150 3150 3150 3150 3150
3165 3165 3165 3164 3163 3162 3162 3162 3161 3160 3159 3159 3157 3156 3155 3155 3154 3153 3153 3153 3153 3153 3152 3151 3151 3150 3149 3148 3147 3146 3146 3145 3145 3145 3145 3145 3145 3144 3145 3145 3145 3145 3145
3158 3157 3157 3158 3158 3154 3154 3154 3153 3152 3151 3151 3149 3147 3146 3146 3146 3146 3145 3145 3146 3146 3145 3145 3143 3143 3143 3142 3142 3141 3140 3139 3139 3139 3139 3139 3138 3138 3138 3138 3138 3138 3138
3150 3150 3149 3148 3148 3147 3147 3146 3145 3143 3143 3143 3141 3139 3135 3136 3137 3139 3138 3137 3138 3137 3136 3136 3135 3135 3134 3134 3134 3134 3133 3133 3132 3132 3132 3132 3132 3131 3131 3131 3131 3131 3131
3142 3141 3140 3139 3139 3138 3138 3138 3136 3135 3134 3133 3133 3132 3127 3123 3126 3128 3129 3128 3128 3128 3128 3127 3127 3126 3125 3124 3124 3124 3123 3124 3123 3123 3123 3122 3123 3123 3124 3123 3123 3124 3124
3133 3132 3131 3130 3129 3129 3128 3128 3128 3126 3126 3124 3123 3123 3121 3119 3116 3113 3116 3119 3119 3117 3117 3117 3117 3116 3115 3115 3114 3113 3113 3113 3112 3112 3112 3111 3111 3111 3113 3113 3113 3114 3115
3125 3123 3123 3122 3121 3120 3120 3119 3119 3118 3116 3116 3113 3113 3111 3108 3107 3106 3102 3104 3107 3107 3107 3105 3105 3104 3104 3104 3103 3099 3100 3101 3100 3100 3100 3099 3100 3098 3097 3099 3100 3103 3104
3117 3116 3116 3115 3114 3113 3113 3112 3110 3109 3109 3107 3106 3103 3101 3099 3098 3096 3095 3094 3091 3091 3095 3094 3093 3092 3093 3093 3091 3090 3090 3086 3086 3089 3088 3088 3088 3086 3085 3086 3088 3092 3094
3109 3109 3108 3107 3106 3106 3106 3103 3101 3100 3099 3097 3096 3093 3091 3090 3089 3087 3084 3083 3078 3079 3080 3082 3078 3080 3081 3079 3078 3078 3075 3075 3079 3077 3077 3077 3078 3078 3078 3078 3079 3080 3082
3100 3099 3098 3097 3097 3097 3097 3095 3093 3092 3090 3090 3088 3085 3081 3081 3079 3078 3076 3073 3068 3067 3067 3065 3066 3062 3068 3068 3067 3068 3069 3061 3070 3068 3067 3067 3066 3066 3067 3067 3069 3070 3071
3091 3090 3088 3087 3087 3086 3086 3086 3085 3083 3082 3080 3078 3076 3073 3071 3070 3068 3066 3065 3062 3059 3056 3056 3051 3051 3052 3053 3052 3056 3058 3058 3057 3057 3057 3058 3055 3055 3056 3057 3058 3060 3061
3083 3082 3081 3080 3079 3078 3077 3077 3076 3074 3073 3071 3069 3067 3065 3063 3060 3059 3058 3057 3054 3053 3048 3047 3044 3042 3037 3041 3043 3041 3044 3043 3046 3048 3047 3049 3046 3045 3047 3048 3049 3050 3050
3077 3075 3074 3073 3073 3072 3071 3070 3069 3067 3065 3063 3061 3058 3055 3053 3052 3051 3050 3049 3048 3046 3043 3043 3039 3036 3035 3032 3031 3035 3035 3036 3040 3038 3040 3039 3039 3038 3038 3039 3039 3039 3038
3071 3069 3068 3068 3067 3066 3065 3063 3062 3060 3059 3056 3052 3049 3046 3044 3044 3043 3042 3040 3039 3037 3035 3033 3031 3030 3030 3027 3026 3029 3030 3030 3030 3032 3030 3031 3030 3028 3029 3028 3028 3027 3027
3065 3063 3063 3062 3061 3059 3058 3057 3055 3054 3052 3049 3045 3042 3039 3037 3036 3036 3035 3034 3032 3030 3029 3027 3026 3025 3024 3021 3023 3024 3023 3024 3024 3022 3022 3021 3020 3020 3020 3019 3017 3017 3017
3060 3058 3057 3057 3055 3053 3053 3051 3048 3047 3046 3042 3038 3035 3031 3030 3030 3030 3029 3027 3025 3024 3022 3021 3020 3019 3018 3016 3016 3016 3015 3014 3013 3012 3011 3010 3011 3010 3009 3008 3007 3007 3005
3055 3053 3052 3051 3050 3050 3048 3046 3044 3042 3040 3037 3033 3031 3027 3026 3024 3023 3022 3021 3019 3018 3017 3016 3014 3012 3010 3007 3007 3007 3006 3005 3003 3002 3001 3001 3000 2997 2997 2996 2995 2994 2994
3049 3048 3047 3047 3047 3046 3043 3042 3040 3038 3035 3034 3031 3027 3025 3023 3020 3019 3017 3015 3014 3012 3009 3007 3004 3002 3000 2999 2999 3000 2998 2996 2995 2992 2989 2989 2985 2985 2984 2985 2985 2985 2984
3045 3045 3046 3045 3044 3043 3042 3040 3038 3036 3034 3032 3029 3026 3024 3021 3019 3017 3015 3013 3010 3007 3004 3001 2998 2996 2993 2993 2992 2989 2988 2986 2983 2979 2979 2979 2975 2976 2976 2975 2976 2977 2977
3044 3043 3044 3046 3044 3042 3040 3039 3037 3035 3033 3030 3027 3024 3021 3019 3016 3013 3011 3008 3005 3002 2999 2996 2992 2989 2987 2984 2982 2979 2976 2974 2973 2971 2972 2970 2971 2971 2971 2972 2972 2972 2972
3044 3044 3045 3045 3043 3041 3039 3037 3035 3033 3030 3027 3024 3020 3018 3015 3012 3009 3006 3003 2999 2995 2991 2987 2984 2980 2978 2975 2973 2971 2970 2968 2967 2967 2967 2967 2967 2967 2967 2967 2968 2967 2965
3044 3044 3043 3043 3041 3039 3037 3035 3032 3029 3026 3022 3020 3017 3013 3010 3007 3004 3000 2996 2992 2989 2985 2981 2977 2974 2972 2970 2969 2967 2966 2965 2964 2963 2963 2965 2965 2964 2964 2963 2962 2961 2959